Location: Unspecified
(41.9031°N, 12.4386°E)
Time: 17:28:35
(UTC+02:00)

ISS - Pass Details

Date: 28 May 2020
Orbit: 417 x 420 km, 51.6° (Epoch: 26 May)

Event Time Altitude Azimuth Distance (km) Brightness Sun altitude
Rises 23:58:20 0° 302° (WNW) 2,366 0.8 -24.6°
Reaches altitude 10° 00:00:27 10° 298° (WNW) 1,500 -0.4 -24.7°
Enters shadow 00:01:47 22° 291° (WNW) 983 -1.5 -24.8°
